Flight Track Log - Related Links

Times and Time Zones

All times are in EDT time to prevent confusion due to time zone crossing. See the LOF3416 flight status page for this flight to view local times or setup timezone preferences in your user account.

Time Position Orientation Groundspeed Altitude Reporting Facility
EDT Latitude Longitude Course Direction KTS MPH feet Rate Location/Type
09:17PM 41.9833 -87.8667 132° Southeast 159 183 2,000  Level Chicago TRACON
09:18PM 41.9500 -87.8167 132° Southeast 205 236 4,100 1,722 Climbing Chicago TRACON
09:18PM 41.9000 -87.7833 154° Southeast 276 318 5,100 1,600 Climbing Chicago TRACON
09:20PM 41.8000 -87.8000 187° South 291 335 7,300 2,384 Climbing Chicago TRACON
09:21PM 41.7156 -87.8806 215° Southwest 290 334 11,100 2,449 Climbing Chicago Center
09:22PM 41.6492 -87.9461 216° Southwest 297 342 13,300 1,694 Climbing Chicago Center
09:23PM 41.5758 -88.0144 215° Southwest 319 367 14,600 1,268 Climbing Chicago Center
09:24PM 41.4986 -88.0889 216° Southwest 348 400 15,900 1,366 Climbing Chicago Center
09:25PM 41.4014 -88.1800 215° Southwest 374 430 17,400 1,306 Climbing Chicago Center
09:26PM 41.3003 -88.2281 200° South 394 453 18,600 1,161 Climbing Chicago Center
09:27PM 41.1953 -88.2750 199° South 399 459 19,800 1,210 Climbing Chicago Center
09:28PM 41.0883 -88.3236 199° South 406 467 21,100 1,415 Climbing Chicago Center
09:29PM 40.9575 -88.3814 198° South 414 476 22,700 1,366 Climbing Chicago Center
09:30PM 40.8492 -88.4300 199° South 415 478 23,900 1,210 Climbing Chicago Center
09:31PM 40.7378 -88.4803 199° South 423 487 25,200 1,258 Climbing Chicago Center
09:32PM 40.6333 -88.5417 204° Southwest 417 480 26,500 1,268 Climbing Chicago Center
09:33PM 40.5494 -88.6347 220° Southwest 398 458 27,800 683 Climbing Chicago Center
09:34PM 40.4608 -88.7367 221° Southwest 400 460 27,900 48 Climbing Chicago Center
09:35PM 40.3694 -88.8372 220° Southwest 423 487 27,900  Level Chicago Center
09:36PM 40.2778 -88.9408 221° Southwest 431 496 27,900  Level Chicago Center
09:37PM 40.1869 -89.0419 220° Southwest 429 494 27,900  Level Chicago Center
09:39PM 40.0953 -89.1422 220° Southwest 428 493 27,900  Level Chicago Center
09:39PM 40.0222 -89.2256 221° Southwest 427 491 27,900  Level Kansas City Center
09:40PM 39.9303 -89.3264 220° Southwest 429 494 27,900  Level Kansas City Center
09:41PM 39.8389 -89.4272 220° Southwest 429 494 27,900  Level Kansas City Center
09:42PM 39.7472 -89.5281 220° Southwest 430 495 27,900  Level Kansas City Center
09:43PM 39.6364 -89.6489 220° Southwest 431 496 27,900  Level Kansas City Center
09:44PM 39.5444 -89.7497 220° Southwest 432 497 27,900  Level Kansas City Center
09:45PM 39.4522 -89.8497 220° Southwest 432 497 27,900  Level Kansas City Center
09:46PM 39.3606 -89.9492 220° Southwest 432 497 27,900  Level Kansas City Center
09:47PM 39.2678 -90.0483 220° Southwest 434 499 27,900  Level Kansas City Center
09:48PM 39.1742 -90.1489 220° Southwest 437 503 27,900  Level Kansas City Center
09:50PM 39.0817 -90.2483 220° Southwest 436 502 27,900  Level Kansas City Center
09:51PM 38.9875 -90.3483 220° Southwest 439 505 27,900  Level Kansas City Center
09:52PM 38.8744 -90.4686 220° Southwest 439 505 27,900  Level Kansas City Center
09:53PM 38.8019 -90.5942 233° Southwest 438 504 27,900  Level Kansas City Center
09:54PM 38.7378 -90.7125 235° Southwest 431 496 27,900  Level Kansas City Center
09:55PM 38.6711 -90.8378 236° Southwest 430 495 27,900  Level Kansas City Center
09:56PM 38.6033 -90.9636 235° Southwest 432 497 27,900  Level Kansas City Center
09:57PM 38.5353 -91.0903 236° Southwest 434 499 27,900  Level Kansas City Center
09:58PM 38.4528 -91.2422 235° Southwest 436 502 27,900  Level Kansas City Center
09:59PM 38.3839 -91.3692 235° Southwest 438 504 27,900  Level Kansas City Center
10:00PM 38.3208 -91.4828 235° Southwest 437 503 27,900 -780 Level Kansas City Center
10:01PM 38.2381 -91.6322 235° Southwest 431 496 26,300 -1,623 Descending Kansas City Center
10:02PM 38.1722 -91.7506 235° Southwest 415 478 24,600 -1,659 Descending Kansas City Center
10:03PM 38.1092 -91.8647 235° Southwest 399 459 22,900 -1,610 Descending Kansas City Center
10:04PM 38.0475 -91.9775 235° Southwest 390 449 21,300 -1,512 Descending Kansas City Center
10:05PM 37.9944 -92.0733 235° Southwest 383 441 19,800 -1,694 Descending Kansas City Center
10:06PM 37.9225 -92.2022 235° Southwest 376 433 17,800 -1,756 Descending Kansas City Center
10:07PM 37.8631 -92.3069 234° Southwest 370 426 16,200 -927 Descending Kansas City Center
10:08PM 37.8031 -92.4117 234° Southwest 370 426 15,900 -146 Descending Kansas City Center
10:09PM 37.7456 -92.5050 232° Southwest 353 406 15,900  Level Kansas City Center
10:10PM 37.6903 -92.6069 236° Southwest 350 403 15,900 -488 Level Kansas City Center
10:11PM 37.6358 -92.7111 237° Southwest 348 400 14,900 -1,171 Descending Kansas City Center
10:12PM 37.5769 -92.8142 234° Southwest 357 411 13,500 -1,366 Descending Kansas City Center
10:13PM 37.5178 -92.9169 234° Southwest 359 413 12,100 -1,512 Descending Kansas City Center
10:14PM 37.4567 -93.0217 234° Southwest 327 376 10,400 -1,610 Descending Kansas City Center
10:15PM 37.4117 -93.1017 235° Southwest 295 339 8,800 -1,707 Descending Kansas City Center
10:16PM 37.3681 -93.1769 234° Southwest 279 321 6,900 -2,000 Descending Kansas City Center
10:17PM 37.3256 -93.2514 234° Southwest 269 310 4,700 -1,951 Descending Kansas City Center
10:18PM 37.2675 -93.3089 218° Southwest 269 310 2,900 -878 Descending Kansas City Center
10:19PM 37.2119 -93.3428 206° Southwest 239 275 2,900 -244 Level Kansas City Center
10:20PM 37.1875 -93.3869 235° Southwest 206 237 2,400 -634 Descending Kansas City Center
10:21PM 37.2172 -93.3967 345° North 159 183 1,600 -439 Descending Kansas City Center
10:22PM 37.2458 -93.3781 27° Northeast 151 174 1,500 -97 Descending Kansas City Center
10:24PM 37.2333 -93.3833 270° West  Level FlightAware Approximate

Login

Don't have an account? Register now (free) for customized features, flight alerts, and more!